TimePDT,TemperatureF,Dew PointF,Humidity,Sea Level PressureIn,VisibilityMPH,Wind Direction,Wind SpeedMPH,Gust SpeedMPH,PrecipitationIn,Events,Conditions,WindDirDegrees,DateUTC
12:15 AM,68.0,39.2,35,29.97,10.0,Calm,Calm,-,N/A,,Clear,0,2013-07-07 07:15:00
12:35 AM,68.0,39.2,35,29.97,10.0,Calm,Calm,-,N/A,,Clear,0,2013-07-07 07:35:00
12:55 AM,66.2,39.2,37,29.97,10.0,NNW,4.6,-,N/A,,Clear,340,2013-07-07 07:55:00
1:15 AM,68.0,39.2,35,29.96,10.0,North,4.6,-,N/A,,Clear,360,2013-07-07 08:15:00
1:35 AM,64.4,39.2,40,29.96,10.0,North,3.5,-,N/A,,Clear,360,2013-07-07 08:35:00
1:55 AM,64.4,37.4,37,29.96,10.0,North,3.5,-,N/A,,Clear,360,2013-07-07 08:55:00
2:15 AM,64.4,37.4,37,29.95,10.0,WNW,3.5,-,N/A,,Clear,290,2013-07-07 09:15:00
2:35 AM,64.4,41.0,42,29.95,10.0,West,5.8,-,N/A,,Clear,280,2013-07-07 09:35:00
2:55 AM,62.6,41.0,45,29.95,10.0,Calm,Calm,-,N/A,,Clear,0,2013-07-07 09:55:00
3:15 AM,64.4,39.2,40,29.95,10.0,Calm,Calm,-,N/A,,Clear,0,2013-07-07 10:15:00
3:35 AM,64.4,39.2,40,29.95,10.0,Calm,Calm,-,N/A,,Clear,0,2013-07-07 10:35:00
3:55 AM,64.4,39.2,40,29.95,10.0,Calm,Calm,-,N/A,,Clear,0,2013-07-07 10:55:00
4:15 AM,64.4,39.2,40,29.95,10.0,West,6.9,-,N/A,,Partly Cloudy,260,2013-07-07 11:15:00
4:35 AM,64.4,39.2,40,29.95,10.0,West,5.8,-,N/A,,Partly Cloudy,260,2013-07-07 11:35:00
4:55 AM,64.4,39.2,40,29.95,10.0,WSW,3.5,-,N/A,,Partly Cloudy,240,2013-07-07 11:55:00
5:15 AM,66.2,37.4,35,29.95,10.0,Calm,Calm,-,N/A,,Partly Cloudy,0,2013-07-07 12:15:00
5:35 AM,64.4,37.4,37,29.96,10.0,WSW,4.6,-,N/A,,Clear,250,2013-07-07 12:35:00
5:55 AM,66.2,33.8,30,29.96,10.0,West,3.5,-,N/A,,Partly Cloudy,270,2013-07-07 12:55:00
6:15 AM,66.2,33.8,30,29.97,10.0,West,4.6,-,N/A,,Partly Cloudy,260,2013-07-07 13:15:00
6:35 AM,68.0,28.4,23,29.97,10.0,WNW,4.6,-,N/A,,Clear,290,2013-07-07 13:35:00
6:55 AM,69.8,28.4,21,29.97,10.0,West,3.5,-,N/A,,Clear,270,2013-07-07 13:55:00
7:15 AM,71.6,30.2,22,29.98,10.0,Calm,Calm,-,N/A,,Clear,0,2013-07-07 14:15:00
7:35 AM,75.2,26.6,17,29.98,10.0,NW,8.1,-,N/A,,Clear,320,2013-07-07 14:35:00
7:55 AM,77.0,30.2,18,29.98,10.0,NW,9.2,-,N/A,,Clear,320,2013-07-07 14:55:00
8:15 AM,80.6,32.0,17,29.99,10.0,NW,9.2,-,N/A,,Clear,320,2013-07-07 15:15:00
8:35 AM,80.6,32.0,17,29.99,10.0,NW,8.1,-,N/A,,Clear,320,2013-07-07 15:35:00
8:55 AM,82.4,32.0,16,29.99,10.0,WNW,6.9,-,N/A,,Clear,290,2013-07-07 15:55:00
9:15 AM,84.2,32.0,15,29.99,10.0,WNW,12.7,-,N/A,,Clear,300,2013-07-07 16:15:00
9:35 AM,84.2,32.0,15,29.99,10.0,NW,11.5,-,N/A,,Clear,310,2013-07-07 16:35:00
9:55 AM,86.0,32.0,14,29.99,10.0,NNW,13.8,-,N/A,,Clear,330,2013-07-07 16:55:00
10:15 AM,86.0,30.2,13,29.99,10.0,NNW,13.8,20.7,N/A,,Clear,330,2013-07-07 17:15:00
10:35 AM,86.0,30.2,13,29.99,10.0,NW,15.0,20.7,N/A,,Clear,320,2013-07-07 17:35:00
10:55 AM,87.8,30.2,13,30.00,10.0,NW,15.0,20.7,N/A,,Clear,310,2013-07-07 17:55:00
11:15 AM,87.8,30.2,13,30.00,10.0,NW,12.7,18.4,N/A,,Clear,320,2013-07-07 18:15:00
11:35 AM,89.6,28.4,11,30.00,10.0,NW,11.5,20.7,N/A,,Clear,320,2013-07-07 18:35:00
11:55 AM,89.6,28.4,11,30.00,10.0,NW,13.8,21.9,N/A,,Clear,320,2013-07-07 18:55:00
12:15 PM,89.6,28.4,11,30.00,10.0,NW,13.8,20.7,N/A,,Clear,310,2013-07-07 19:15:00
12:35 PM,91.4,28.4,10,30.00,10.0,NNW,13.8,20.7,N/A,,Clear,330,2013-07-07 19:35:00
12:55 PM,91.4,28.4,10,29.99,10.0,NNW,16.1,21.9,N/A,,Clear,330,2013-07-07 19:55:00
1:15 PM,91.4,28.4,10,29.99,10.0,NW,16.1,24.2,N/A,,Clear,310,2013-07-07 20:15:00
1:35 PM,91.4,26.6,10,29.99,10.0,NW,19.6,24.2,N/A,,Clear,310,2013-07-07 20:35:00
1:55 PM,91.4,26.6,10,29.98,10.0,NNW,17.3,25.3,N/A,,Clear,330,2013-07-07 20:55:00
2:15 PM,91.4,24.8,9,29.98,10.0,NW,19.6,26.5,N/A,,Clear,320,2013-07-07 21:15:00
2:35 PM,91.4,28.4,10,29.98,10.0,NW,19.6,26.5,N/A,,Clear,310,2013-07-07 21:35:00
2:55 PM,91.4,28.4,10,29.98,10.0,NW,18.4,27.6,N/A,,Clear,310,2013-07-07 21:55:00
3:15 PM,91.4,32.0,12,29.98,10.0,NW,17.3,24.2,N/A,,Clear,310,2013-07-07 22:15:00
3:35 PM,91.4,32.0,12,29.98,10.0,NW,20.7,26.5,N/A,,Clear,310,2013-07-07 22:35:00
3:55 PM,91.4,32.0,12,29.98,10.0,NW,20.7,28.8,N/A,,Clear,320,2013-07-07 22:55:00
4:15 PM,91.4,32.0,12,29.98,10.0,NW,21.9,26.5,N/A,,Clear,320,2013-07-07 23:15:00
4:35 PM,89.6,35.6,15,29.98,10.0,NW,18.4,25.3,N/A,,Clear,310,2013-07-07 23:35:00
4:55 PM,89.6,33.8,14,29.97,10.0,NW,18.4,25.3,N/A,,Clear,320,2013-07-07 23:55:00
5:15 PM,89.6,35.6,15,29.97,10.0,WNW,19.6,25.3,N/A,,Clear,300,2013-07-08 00:15:00
5:35 PM,89.6,33.8,14,29.97,10.0,NW,17.3,24.2,N/A,,Clear,320,2013-07-08 00:35:00
5:55 PM,87.8,35.6,16,29.97,10.0,NW,17.3,24.2,N/A,,Clear,310,2013-07-08 00:55:00
6:15 PM,87.8,35.6,16,29.97,10.0,NW,19.6,-,N/A,,Clear,310,2013-07-08 01:15:00
6:35 PM,86.0,35.6,17,29.98,10.0,NW,16.1,-,N/A,,Clear,320,2013-07-08 01:35:00
6:55 PM,86.0,33.8,15,29.98,10.0,NW,18.4,24.2,N/A,,Clear,320,2013-07-08 01:55:00
7:15 PM,84.2,33.8,16,29.99,10.0,WNW,15.0,20.7,N/A,,Clear,290,2013-07-08 02:15:00
7:35 PM,84.2,32.0,15,29.99,10.0,WNW,17.3,21.9,N/A,,Clear,300,2013-07-08 02:35:00
7:55 PM,82.4,32.0,16,30.00,10.0,WNW,12.7,-,N/A,,Clear,300,2013-07-08 02:55:00
8:15 PM,80.6,32.0,17,30.00,10.0,WNW,10.4,16.1,N/A,,Clear,300,2013-07-08 03:15:00
8:35 PM,80.6,32.0,17,30.01,10.0,WNW,6.9,-,N/A,,Clear,290,2013-07-08 03:35:00
8:55 PM,77.0,35.6,22,30.01,10.0,West,5.8,-,N/A,,Clear,270,2013-07-08 03:55:00
9:15 PM,75.2,35.6,24,30.02,10.0,WNW,4.6,-,N/A,,Clear,300,2013-07-08 04:15:00
9:35 PM,75.2,33.8,22,30.03,10.0,WNW,5.8,-,N/A,,Clear,290,2013-07-08 04:35:00
9:55 PM,73.4,35.6,25,30.03,10.0,West,8.1,-,N/A,,Clear,270,2013-07-08 04:55:00
10:15 PM,73.4,33.8,23,30.04,10.0,NW,5.8,-,N/A,,Clear,320,2013-07-08 05:15:00
10:35 PM,71.6,32.0,23,30.04,10.0,Calm,Calm,-,N/A,,Clear,0,2013-07-08 05:35:00
10:55 PM,69.8,33.8,27,30.05,10.0,East,4.6,-,N/A,,Clear,90,2013-07-08 05:55:00
11:15 PM,71.6,33.8,25,30.05,10.0,Calm,Calm,-,N/A,,Clear,0,2013-07-08 06:15:00
11:35 PM,69.8,32.0,25,30.05,10.0,Calm,Calm,-,N/A,,Clear,0,2013-07-08 06:35:00
11:55 PM,68.0,32.0,26,30.05,10.0,Calm,Calm,-,N/A,,Clear,0,2013-07-08 06:55:00